Weather History for Chipley, FL

Change the Weather History Date:

Tuesday, December 11, 2012

  Actual Average (KMAI) Record (KMAI)
Temperature  
Mean Temperature 48 °F 53 °F  
Max Temperature 51 °F 65 °F 81 °F (2007)
Min Temperature 44 °F 42 °F 30 °F (2010)
Degree Days  
Heating Degree Days 18    
Month to date heating degree days  
Since 1 July heating degree days  
Cooling Degree Days 0    
Month to date cooling degree days  
Year to date cooling degree days  
Moisture  
Dew Point 34 °F    
Average Humidity 61    
Maximum Humidity 71    
Minimum Humidity 54    
Precipitation  
Precipitation 0.00 in 0.14 in 2.31 in (2008)
Month to date precipitation 1.54  
Year to date precipitation 51.21  
Sea Level Pressure  
Sea Level Pressure 30.09 in    
Wind  
Wind Speed 8 mph (NNE)    
Max Wind Speed 13 mph    
Max Gust Speed 20 mph    
Visibility 10 miles    
Events      
T = Trace of Precipitation, MM = Missing Value Source: NWS Daily Summary

Daily Weather History Graph

Daily Weather History Graph

Search for Another Location

Airport:

Trip Planner

Search our weather history database for the weather conditions in past years. The results will help you decide how hot, cold, wet, or windy it might be!

Date:

Astronomy

Dec. 11, 2012 Rise Set
Actual Time 6:30 AM CST 4:41 PM CST
Civil Twilight 6:03 AM CST 5:08 PM CST
Nautical Twilight 5:33 AM CST 5:38 PM CST
Astronomical Twilight 5:04 AM CST 6:07 PM CST
Moon 4:28 AM CST (12/11) 3:17 PM CST (12/11)
Length of Visible Light 11h 04m
Length of Day
10h 11m
Waning Crescent, 4% of the Moon is Illuminated
Dec 11
Waning Crescent
Dec 13
New
Dec 19
First Quarter
Dec 28
Full
Jan 4
Last Quarter

Hourly Weather History & Observations

Time (CST) Temp. Windchill Dew Point Humidity Pressure Visibility Wind Dir Wind Speed Gust Speed Precip Events Conditions
12:15 AM 51.8 °F - 35.6 °F 54% 30.00 in 10.0 mi North 10.4 mph 16.1 mph N/A   Mostly Cloudy
12:35 AM 50.0 °F - 37.4 °F 62% 30.01 in 10.0 mi North 6.9 mph - N/A   Overcast
12:55 AM 50.0 °F - 33.8 °F 54% 30.01 in 10.0 mi North 8.1 mph 17.3 mph N/A   Mostly Cloudy
1:15 AM 48.2 °F - 33.8 °F 58% 30.00 in 10.0 mi NNE 9.2 mph 17.3 mph N/A   Partly Cloudy
1:35 AM 48.2 °F - 33.8 °F 58% 29.99 in 10.0 mi NNE 12.7 mph 18.4 mph N/A   Clear
1:55 AM 48.2 °F - 33.8 °F 58% 30.01 in 10.0 mi NNE 10.4 mph 17.3 mph N/A   Clear
2:15 AM 48.2 °F - 35.6 °F 62% 30.01 in 10.0 mi NNE 8.1 mph - N/A   Clear
2:35 AM 48.2 °F - 35.6 °F 62% 30.02 in 10.0 mi NNE 10.4 mph 17.3 mph N/A   Clear
2:55 AM 48.2 °F - 33.8 °F 58% 30.01 in 10.0 mi NNE 11.5 mph 17.3 mph N/A   Clear
3:15 AM 46.4 °F 42.4 °F 33.8 °F 62% 30.03 in 10.0 mi NNE 8.1 mph 17.3 mph N/A   Clear
3:35 AM 46.4 °F 41.9 °F 35.6 °F 66% 30.04 in 10.0 mi North 9.2 mph - N/A   Mostly Cloudy
3:55 AM 46.4 °F 42.4 °F 35.6 °F 66% 30.03 in 10.0 mi NNE 8.1 mph 19.6 mph N/A   Partly Cloudy
4:15 AM 46.4 °F 41.1 °F 35.6 °F 66% 30.03 in 10.0 mi NNE 11.5 mph - N/A   Clear
4:35 AM 46.4 °F 42.4 °F 33.8 °F 62% 30.03 in 10.0 mi NNE 8.1 mph 18.4 mph N/A   Partly Cloudy
4:55 AM 44.6 °F 39.7 °F 33.8 °F 66% 30.04 in 10.0 mi NNE 9.2 mph 17.3 mph N/A   Partly Cloudy
5:15 AM 44.6 °F 40.2 °F 35.6 °F 71% 30.04 in 10.0 mi NNE 8.1 mph - N/A   Partly Cloudy
5:35 AM 44.6 °F 39.2 °F 33.8 °F 66% 30.05 in 10.0 mi NNE 10.4 mph 16.1 mph N/A   Unknown
5:55 AM 44.6 °F 40.2 °F 33.8 °F 66% 30.05 in 10.0 mi NNE 8.1 mph 17.3 mph N/A   Clear
6:15 AM 44.6 °F 40.2 °F 32.0 °F 61% 30.05 in 10.0 mi NNE 8.1 mph - N/A   Clear
6:35 AM 44.6 °F 40.7 °F 32.0 °F 61% 30.06 in 10.0 mi NNE 6.9 mph - N/A   Clear
6:55 AM 44.6 °F 40.7 °F 30.2 °F 57% 30.06 in 10.0 mi NNE 6.9 mph - N/A   Clear
7:15 AM 44.6 °F 40.7 °F 30.2 °F 57% 30.08 in 10.0 mi NNE 6.9 mph - N/A   Clear
7:35 AM 44.6 °F 39.7 °F 32.0 °F 61% 30.08 in 10.0 mi NNE 9.2 mph - N/A   Clear
8:15 AM 44.6 °F 39.2 °F 32.0 °F 61% 30.10 in 10.0 mi NNE 10.4 mph - N/A   Clear
8:35 AM 44.6 °F 40.7 °F 30.2 °F 57% 30.11 in 10.0 mi North 6.9 mph - N/A   Clear
8:55 AM 44.6 °F 40.7 °F 32.0 °F 61% 30.12 in 10.0 mi North 6.9 mph 17.3 mph N/A   Clear
9:15 AM 46.4 °F 42.4 °F 32.0 °F 57% 30.12 in 10.0 mi NNE 8.1 mph - N/A   Clear
9:35 AM 46.4 °F 43.5 °F 33.8 °F 62% 30.12 in 10.0 mi NNW 5.8 mph - N/A   Clear
9:55 AM 46.4 °F 42.9 °F 32.0 °F 57% 30.12 in 10.0 mi North 6.9 mph 16.1 mph N/A   Clear
10:15 AM 46.4 °F 43.5 °F 33.8 °F 62% 30.12 in 10.0 mi North 5.8 mph - N/A   Clear
10:35 AM 46.4 °F 42.4 °F 33.8 °F 62% 30.12 in 10.0 mi North 8.1 mph - N/A   Clear
10:55 AM 46.4 °F 42.9 °F 33.8 °F 62% 30.11 in 10.0 mi NNW 6.9 mph - N/A   Clear
11:15 AM 46.4 °F 42.9 °F 33.8 °F 62% 30.12 in 10.0 mi North 6.9 mph - N/A   Clear
11:35 AM 46.4 °F 44.3 °F 33.8 °F 62% 30.11 in 10.0 mi North 4.6 mph - N/A   Clear
11:55 AM 46.4 °F 42.9 °F 33.8 °F 62% 30.10 in 10.0 mi NW 6.9 mph - N/A   Clear
12:15 PM 48.2 °F - 33.8 °F 58% 30.09 in 10.0 mi NW 8.1 mph - N/A   Clear
12:35 PM 48.2 °F - 33.8 °F 58% 30.08 in 10.0 mi North 6.9 mph - N/A   Clear
12:55 PM 48.2 °F - 33.8 °F 58% 30.07 in 10.0 mi NNW 4.6 mph - N/A   Clear
1:15 PM 48.2 °F - 33.8 °F 58% 30.06 in 10.0 mi NNE 9.2 mph - N/A   Clear
1:35 PM 48.2 °F - 33.8 °F 58% 30.06 in 10.0 mi NNE 9.2 mph - N/A   Clear
1:55 PM 48.2 °F - 33.8 °F 58% 30.06 in 10.0 mi NNE 6.9 mph - N/A   Clear
2:15 PM 48.2 °F - 33.8 °F 58% 30.06 in 10.0 mi NNE 8.1 mph - N/A   Clear
2:35 PM 48.2 °F - 33.8 °F 58% 30.06 in 10.0 mi NNE 6.9 mph - N/A   Clear
2:55 PM 48.2 °F - 33.8 °F 58% 30.07 in 10.0 mi North 6.9 mph - N/A   Clear
3:15 PM 48.2 °F - 33.8 °F 58% 30.09 in 10.0 mi North 4.6 mph - N/A   Clear
3:35 PM 48.2 °F - 33.8 °F 58% 30.10 in 10.0 mi NNE 5.8 mph - N/A   Clear
3:55 PM 48.2 °F - 33.8 °F 58% 30.10 in 10.0 mi North 6.9 mph - N/A   Clear
4:15 PM 48.2 °F - 33.8 °F 58% 30.10 in 10.0 mi NNE 6.9 mph - N/A   Clear
4:35 PM 48.2 °F - 33.8 °F 58% 30.10 in 10.0 mi NNE 6.9 mph - N/A   Clear
4:55 PM 48.2 °F - 33.8 °F 58% 30.10 in 10.0 mi NNE 9.2 mph - N/A   Clear
5:15 PM 48.2 °F - 33.8 °F 58% 30.11 in 10.0 mi NNE 9.2 mph - N/A   Clear
5:35 PM 46.4 °F 42.4 °F 35.6 °F 66% 30.11 in 10.0 mi North 8.1 mph - N/A   Clear
5:55 PM 46.4 °F 41.9 °F 33.8 °F 62% 30.11 in 10.0 mi NNE 9.2 mph - N/A   Clear
6:15 PM 46.4 °F 42.9 °F 33.8 °F 62% 30.11 in 10.0 mi North 6.9 mph - N/A   Clear
6:35 PM 46.4 °F 41.9 °F 35.6 °F 66% 30.12 in 10.0 mi NNE 9.2 mph - N/A   Clear
6:55 PM 46.4 °F 42.4 °F 33.8 °F 62% 30.11 in 10.0 mi NNE 8.1 mph 16.1 mph N/A   Clear
7:15 PM 46.4 °F 42.4 °F 33.8 °F 62% 30.12 in 10.0 mi NNE 8.1 mph - N/A   Clear
7:35 PM 46.4 °F 41.1 °F 33.8 °F 62% 30.14 in 10.0 mi NNE 11.5 mph 16.1 mph N/A   Clear
7:55 PM 46.4 °F 41.9 °F 33.8 °F 62% 30.14 in 10.0 mi NNE 9.2 mph - N/A   Clear
8:15 PM 46.4 °F 42.9 °F 33.8 °F 62% 30.15 in 10.0 mi NNE 6.9 mph 16.1 mph N/A   Clear
8:35 PM 44.6 °F 40.7 °F 33.8 °F 66% 30.17 in 10.0 mi NNE 6.9 mph - N/A   Clear
8:55 PM 44.6 °F 40.7 °F 33.8 °F 66% 30.18 in 10.0 mi NNE 6.9 mph - N/A   Clear
9:15 PM 44.6 °F 40.2 °F 33.8 °F 66% 30.18 in 10.0 mi NNE 8.1 mph - N/A   Clear
9:35 PM 44.6 °F 40.2 °F 33.8 °F 66% 30.16 in 10.0 mi North 8.1 mph - N/A   Clear
9:55 PM 44.6 °F 40.2 °F 33.8 °F 66% 30.16 in 10.0 mi NE 8.1 mph - N/A   Clear
10:15 PM 44.6 °F 41.4 °F 33.8 °F 66% 30.17 in 10.0 mi NNE 5.8 mph - N/A   Clear
10:35 PM 44.6 °F 41.4 °F 33.8 °F 66% 30.18 in 10.0 mi NNE 5.8 mph - N/A   Clear
10:55 PM 44.6 °F 40.7 °F 32.0 °F 61% 30.19 in 10.0 mi NE 6.9 mph - N/A   Mostly Cloudy
11:15 PM 44.6 °F 40.7 °F 30.2 °F 57% 30.17 in 10.0 mi NNE 6.9 mph - N/A   Scattered Clouds
11:35 PM 44.6 °F 40.7 °F 30.2 °F 57% 30.18 in 10.0 mi ENE 6.9 mph - N/A   Scattered Clouds
11:55 PM 44.6 °F 40.7 °F 32.0 °F 61% 30.17 in 10.0 mi NE 6.9 mph - N/A   Mostly Cloudy